Location: Casteau
(50.5142°N, 4.0161°E)
Time: 08:01:32
(UTC+00:00)

Cosmos 1844 - Pass Details

Date: 18 September 2020
Orbit: 824 x 866 km, 70.9° (Epoch: 24 October)

Event Time Altitude Azimuth Distance (km) Brightness Sun altitude
Rises 19:27:02 0° 179° (S) 3,412 6.6 -15.8°
Reaches altitude 10° 19:29:40 10° 171° (S) 2,474 5.8 -16.2°
Maximum altitude 19:34:45 35° 107° (ESE) 1,336 4.2 -16.9°
Drops below altitude 10° 19:39:49 10° 43° (NE) 2,464 5.9 -17.6°
Sets 19:42:26 0° 35° (NE) 3,396 6.8 -18.0°
